Back to catalog

NUSAT-45

UZMASAT-1

AliveScienceSSO
NORAD 62640·PAYLOAD·🇦🇷 Argentina

Launched Jan 14, 2025 from Vandenberg Space Force Base

Loading…

Next Passes (next 24 hours)

TLE

FreshSource: Space-Track

Epoch: Sep 14, 2026, 12:39 UTC

1 62640U 25009AH  26257.52755961  .00006793  00000-0  23709-3 0  9995
2 62640  97.3541 337.8663 0002889  52.3830 307.7673 15.29918609 92580

Track NUSAT-45 in real time with AllMySat

Download on the App Store